Tracking 33181 objects as of 19-Feb-2026
HD Live streaming from Space Station
objects crossing your sky now

FENGYUN 1C DEB

Track FENGYUN 1C DEB now!
10-day predictions


NORAD ID: 37476
Int'l Code: 1999-025EJW
Perigee: 855.8 km
Apogee: 2,599.0 km
Inclination: 98.9 °
Period: 120.9 minutes
Semi major axis: 8098 km
RCS: 0.002 m2 (small)
Launch date: May 10, 1999
Source: People's Republic of China (PRC)
Launch site: Taiyaun Space Center, China (TSC)

Note: This is SATELLITE DEBRIS
Your satellite tracking list
Your tracking list is empty




NASA's NSSDC Master Catalog

Two Line Element Set (TLE):
1 37476U 99025EJW 26049.25324280  .00001218  00000-0  32154-2 0  9998
2 37476  98.9359  56.9219 1076242  94.5791 277.8767 11.91246578682476
Source of the keplerian elements: AFSPC